GFSNE_con_sbcape_000.txt.gz
CAPE
0 0 0 0 0 0 0 0 0 0 0 0 0 0 0 0 0 0 0 0 0 0 0 0 0 0 5 22 50 155 598 834 1318 1420 1536 1562 1611 1810
0 0 0 22 0 0 0 0 0 0 0 0 0 0 0 0 0 0 0 0 0 0 0 0 0 0 3 4 0 0 15 189 530 812 993 1023 1052 1163
13 22 34 27 11 0 0 0 0 1 0 0 0 0 0 0 0 0 0 0 0 0 0 0 0 0 0 1 2 0 0 0 2 102 551 685 665 716
46 35 66 50 23 7 0 0 0 0 1 1 0 0 0 0 0 0 0 0 0 0 0 0 0 0 0 0 0 0 0 0 0 0 4 296 376 416
31 44 53 27 0 0 0 0 0 5 3 3 0 0 0 0 0 0 0 0 0 0 0 0 0 0 0 0 0 0 0 0 0 0 0 0 5 117
41 48 24 19 16 7 0 0 22 23 35 7 1 1 3 0 0 0 0 0 0 0 0 0 0 0 0 0 0 0 0 0 0 0 0 0 0 0
80 51 20 18 38 39 32 40 0 16 49 22 1 7 1 0 0 0 1 0 0 0 0 0 5 8 16 5 0 1 0 0 0 0 0 0 0 0
78 23 0 0 7 10 31 68 100 122 150 79 24 1 24 23 1 0 2 2 23 2 13 11 24 14 14 7 0 19 0 0 0 1 1 1 1 1
4 0 0 0 16 3 0 8 54 87 154 368 16 18 43 1 6 10 9 5 28 2 12 11 9 5 23 10 0 0 0 0 0 0 0 1 1 1
0 0 0 0 0 0 0 13 3 0 0 0 0 0 3 8 17 35 7 29 15 13 12 17 17 9 23 16 1 0 0 0 0 0 0 0 0 1
0 0 0 0 0 0 0 0 0 0 0 0 0 0 0 0 1 11 4 25 24 14 11 11 8 12 18 16 14 1 0 0 0 0 0 0 0 0
0 0 0 0 0 0 0 0 0 0 0 0 0 0 3 2 1 10 46 25 21 10 10 8 11 9 14 11 12 13 78 0 0 0 0 0 0 0
0 0 0 0 0 0 0 0 0 0 0 2 2 0 2 2 2 3 5 8 7 11 7 12 9 25 13 27 121 6 188 23 2 0 0 1 1 0
0 0 0 0 0 0 0 0 0 0 1 2 0 0 6 5 4 3 4 6 4 10 6 13 10 22 13 18 21 22 65 4 4 1 1 1 1 1
0 0 0 0 0 0 0 0 0 0 0 0 0 0 2 3 9 5 2 3 0 3 26 8 15 20 8 142 653 38 51 6 5 2 3 2 1 2
0 0 0 0 0 0 0 0 0 0 0 0 0 0 1 2 1 2 8 3 2 0 5 5 8 15 7 2 114 318 31 8 3 3 4 5 3 4
0 0 0 0 0 0 0 0 0 0 0 0 0 0 0 0 0 1 4 2 2 2 7 7 8 9 4 4 178 313 9 1 3 3 4 4 4 5
0 0 0 0 0 0 0 0 0 0 0 0 0 0 0 0 0 0 0 2 2 2 3 10 6 4 7 6 1 3 34 38 1 3 7 3 3 4
0 0 0 0 0 0 0 0 0 0 0 0 0 0 0 0 0 0 0 0 2 1 3 21 7 5 7 8 8 0 2 7 4 4 5 3 2 2
0 0 0 0 0 0 0 0 0 0 0 0 0 0 0 0 0 0 0 0 2 4 2 3 4 5 3 4 7 3 0 4 1 4 22 69 28 0
0 0 0 0 0 0 0 0 0 0 0 0 0 0 0 0 0 0 0 0 0 4 2 1 3 0 2 0 1 15 16 0 5 2 0 34 79 55
0 0 0 0 0 0 0 0 0 0 0 0 0 0 0 0 0 0 0 0 0 1 4 2 2 0 0 1 2 1 3 3 1 0 0 1 15 151
0 0 0 0 0 0 0 0 0 0 0 0 0 0 0 0 0 0 0 0 0 0 0 0 1 2 4 3 1 1 1 2 5 6 1 0 0 0

GFSNE_con_sbcape_003.txt.gz
CAPE
241 428 257 134 166 173 205 99 77 32 24 8 0 0 0 0 0 0 0 0 0 0 0 0 0 0 0 0 0 2 43 146 325 841 1183 1415 1600 2153
72 398 500 213 294 591 335 157 97 71 22 24 24 1 0 0 0 0 0 0 0 0 0 0 0 0 0 0 0 0 2 2 6 122 534 869 1133 1483
372 449 509 595 279 283 334 286 143 113 106 1 14 31 27 80 84 82 25 0 0 0 0 0 0 0 0 0 0 0 0 1 0 0 40 397 661 847
178 402 397 281 554 426 270 286 162 209 125 108 75 42 111 135 170 220 125 0 0 0 0 0 0 0 0 0 0 0 0 0 0 0 0 2 241 418
302 391 424 526 515 231 263 140 94 289 169 137 85 56 74 147 188 275 240 121 19 0 0 0 0 0 0 0 0 0 0 0 0 0 0 0 0 8
434 488 576 562 422 299 202 229 257 234 161 151 112 76 110 336 229 235 120 45 20 4 1 0 0 0 0 0 0 0 0 0 0 0 0 0 0 0
652 858 708 612 179 116 71 196 220 187 115 93 109 88 121 136 241 161 146 80 120 26 14 8 8 5 1 5 6 1 0 0 0 0 0 0 0 0
936 728 771 128 84 23 16 44 91 195 258 214 99 228 529 353 276 278 142 41 14 22 64 24 15 5 8 15 7 0 0 0 0 0 0 0 0 0
942 799 617 181 58 119 17 0 17 16 78 308 335 380 379 399 358 151 23 26 18 19 53 22 23 27 11 2 4 1 0 0 0 0 0 0 0 0
609 534 417 323 180 45 57 38 79 132 181 106 135 173 144 56 14 24 30 39 27 32 127 73 46 19 10 41 21 11 0 0 0 0 0 0 1 1
542 383 121 102 4 0 0 4 32 58 7 0 0 0 0 0 0 11 10 24 26 38 5 5 4 12 20 21 36 14 0 0 0 0 0 0 1 1
339 69 0 0 0 0 0 0 29 52 4 0 0 0 0 1 0 12 3 11 18 8 0 14 10 21 14 11 8 18 18 0 0 0 0 0 1 0
223 119 0 0 0 0 0 1 1 0 0 0 0 1 2 2 5 6 7 24 95 19 0 11 19 14 9 6 16 4 75 25 11 0 1 1 1 0
338 50 0 0 0 0 0 0 0 0 0 0 1 1 0 0 0 0 0 2 12 28 3 6 11 8 18 8 20 18 140 64 249 28 6 0 1 0
0 0 0 0 0 0 0 0 0 0 0 0 0 0 0 0 0 0 0 1 4 7 0 2 7 14 18 15 28 15 73 294 251 22 4 5 3 2
0 0 0 0 0 0 0 0 0 0 0 0 0 0 0 0 0 0 0 0 10 2 0 0 17 11 11 14 25 5 59 265 40 6 5 8 10 3
0 0 0 0 0 2 0 0 0 0 0 0 0 0 0 0 0 0 0 2 16 17 4 0 3 7 10 6 12 13 196 331 47 7 13 5 6 9
0 0 0 0 2 1 0 0 0 0 0 0 0 0 0 0 0 0 0 4 12 12 12 7 6 9 24 9 1 1 3 249 68 36 18 16 7 10
0 0 0 0 0 0 0 0 0 0 0 0 0 0 0 0 0 0 0 0 0 1 7 10 9 4 10 11 5 4 1 11 154 7 11 11 37 7
0 0 0 0 0 0 0 0 0 0 0 0 0 0 0 0 0 0 0 0 0 1 5 20 8 3 4 8 13 25 2 8 10 57 21 48 5 0
0 0 0 0 0 0 0 0 0 0 0 0 0 0 0 0 0 0 0 0 0 0 4 10 8 1 6 2 4 6 6 1 1 7 4 17 70 39
0 0 0 0 0 0 0 0 0 0 0 0 0 0 0 0 0 0 0 0 0 2 4 4 5 5 5 7 8 6 5 2 8 0 0 1 4 226
0 0 0 0 0 0 0 0 0 0 0 0 0 0 0 0 0 0 0 0 0 0 0 0 3 1 3 5 3 5 7 2 7 5 1 0 1 0

GFSNE_con_sbcape_006.txt.gz
CAPE
12 38 119 34 39 58 77 95 76 36 27 38 43 50 30 43 37 3 0 0 0 0 0 0 0 0 0 0 0 0 0 0 3 47 202 584 1407 1895
0 4 65 33 69 82 92 94 73 41 13 20 8 31 46 45 97 60 60 23 0 0 0 0 0 0 0 0 0 0 0 0 0 0 3 21 253 1046
0 62 211 420 193 74 72 53 64 80 82 7 12 24 50 120 100 144 127 86 69 40 1 0 0 0 0 0 0 0 0 0 0 0 1 3 0 235
32 165 324 245 358 429 188 204 167 179 127 204 183 55 349 68 79 225 207 87 97 75 23 0 0 0 0 0 0 0 0 0 0 0 0 0 2 1
108 245 311 332 401 207 235 102 113 109 141 122 133 131 71 46 181 478 463 445 114 160 51 22 0 0 0 0 0 0 0 0 0 0 0 0 0 2
220 324 492 506 406 384 294 317 323 212 285 117 166 99 140 205 186 97 95 106 68 115 103 17 5 0 0 0 0 0 0 0 0 0 0 0 0 0
371 478 622 739 347 320 173 475 331 197 144 133 114 97 50 105 298 107 96 159 363 377 171 26 5 8 7 2 3 4 0 0 0 0 0 0 0 0
710 892 1004 873 538 188 55 12 51 119 126 86 74 114 287 272 301 183 213 153 194 309 256 9 56 100 38 8 4 0 0 0 0 0 0 0 0 0
978 987 794 417 341 570 149 8 15 0 0 122 258 229 430 435 370 483 348 236 133 8 149 133 131 67 82 20 0 0 0 0 0 0 0 0 0 0
966 770 631 501 537 500 465 256 173 186 212 169 188 135 152 141 60 29 25 54 98 47 473 279 92 33 42 32 1 0 0 0 0 0 0 0 0 1
703 545 430 662 80 0 64 112 157 145 20 0 0 0 0 0 0 5 5 32 50 43 132 124 53 67 20 2 1 4 0 0 0 0 0 0 0 1
276 437 0 40 0 0 0 52 63 89 74 1 22 16 1 9 1 25 13 35 64 69 61 91 58 11 5 11 20 19 7 1 0 0 0 0 0 0
393 975 385 0 0 0 0 0 22 0 0 0 4 0 0 12 38 154 138 69 36 11 2 100 79 13 7 9 13 12 25 1 0 7 0 0 1 0
1177 386 7 0 0 0 0 0 0 0 0 5 2 0 2 14 17 10 6 3 0 37 126 401 105 10 7 5 16 22 14 5 38 46 56 0 0 0
393 23 0 0 0 0 0 0 0 0 10 1 0 0 1 3 1 17 30 56 88 209 115 335 55 11 4 14 14 22 10 0 3 483 346 26 4 4
0 0 0 0 0 0 0 0 1 4 0 0 0 1 1 2 3 0 0 0 7 38 156 149 55 27 11 11 26 20 25 16 24 316 178 86 15 2
0 0 0 5 5 13 17 9 4 0 0 0 0 1 0 0 0 0 0 0 30 47 13 33 38 8 3 13 9 17 9 5 65 73 30 10 9 58
0 0 1 3 3 7 8 3 0 0 0 0 0 0 0 0 0 0 0 0 28 60 0 1 275 11 1 2 2 34 17 8 5 30 17 7 6 12
0 0 0 0 0 0 0 0 0 0 0 0 0 0 0 0 0 0 0 0 10 1 0 5 265 11 6 8 20 0 16 9 9 2 258 58 156 14
0 0 0 0 0 0 0 0 0 0 0 0 0 0 0 0 0 0 0 0 10 24 1 27 29 16 3 8 10 27 6 5 10 9 13 278 463 102
0 0 0 0 0 0 0 0 0 0 0 0 0 0 0 0 0 0 0 0 0 16 2 0 11 1 15 4 2 6 21 0 0 8 10 10 295 91
0 0 0 0 0 0 0 0 0 0 0 0 0 0 0 0 0 0 0 0 7 7 0 0 3 1 9 6 5 7 10 10 0 3 1 3 3 3
0 0 0 0 0 0 0 0 0 0 0 0 0 0 0 0 0 0 0 0 0 0 0 31 0 0 3 9 4 6 5 7 4 5 8 0 0 0

GFSNE_con_sbcape_009.txt.gz
CAPE
118 507 138 17 17 22 47 418 274 82 100 100 75 322 125 72 86 24 8 18 0 0 0 0 0 0 0 0 0 0 0 0 0 0 0 0 0 178
4 317 512 33 32 32 124 72 53 38 33 57 65 216 346 69 99 97 57 110 34 3 0 0 0 0 0 0 0 0 0 0 0 0 0 0 0 4
521 173 380 688 103 19 26 41 17 57 20 16 21 134 1119 741 469 442 169 430 117 43 34 0 0 0 0 0 0 0 0 0 0 0 0 0 0 0
209 644 337 199 1205 1485 168 1236 582 316 90 524 250 23 483 721 1063 1097 304 54 110 44 39 3 0 0 0 0 0 0 0 0 0 0 0 0 0 0
338 753 572 1129 1280 602 1007 474 278 408 290 45 68 86 79 25 180 765 650 278 231 49 14 7 4 0 0 0 0 0 0 0 0 0 0 0 0 0
861 824 913 1013 1145 1285 1029 1444 1008 565 343 182 102 97 160 190 395 122 124 45 67 89 73 15 45 61 2 0 0 0 0 0 0 0 0 0 0 0
649 566 891 1009 669 733 838 808 1253 465 252 178 161 144 166 165 191 207 244 213 91 161 130 342 320 317 134 28 77 34 0 0 0 0 0 0 0 0
920 1275 1351 708 449 207 227 178 89 478 584 159 177 160 384 355 142 127 315 161 13 215 321 200 101 102 126 311 164 14 0 0 0 0 0 0 0 0
1487 1178 1086 793 344 437 442 110 44 0 24 352 561 555 511 533 507 550 403 208 69 13 142 48 138 333 506 191 43 1 0 0 0 0 0 0 0 0
1405 1710 1808 1554 1036 1019 814 418 556 949 651 264 446 654 579 275 101 55 160 143 70 166 335 207 269 478 468 548 44 0 0 0 0 0 0 0 0 0
1645 1642 1311 1373 682 172 274 192 214 361 215 8 1 0 0 0 0 0 4 12 18 36 79 199 237 223 315 128 90 0 0 0 0 0 0 0 0 0
1428 1770 259 248 0 0 83 103 229 339 218 199 168 1 19 22 0 18 53 71 53 51 150 189 45 32 45 32 23 9 0 0 0 0 0 0 0 0
1224 989 768 0 0 0 0 34 93 20 103 0 0 3 149 160 19 131 519 125 49 35 27 9 0 88 261 107 9 0 7 12 12 8 0 0 0 0
1132 984 795 0 0 0 0 0 0 0 0 0 11 43 27 1 4 22 317 274 27 219 50 73 179 236 178 36 6 3 2 1 5 9 7 1 0 0
247 0 0 0 0 0 0 0 0 0 0 23 40 2 0 0 158 87 296 480 459 103 55 402 368 231 145 29 9 7 32 4 6 11 11 22 28 0
1 1 0 0 0 0 0 0 0 2 19 0 0 0 0 0 2 0 0 0 0 1 280 418 163 342 208 34 11 6 26 11 16 23 11 448 50 0
103 88 37 47 48 65 55 67 40 36 13 2 0 0 0 0 0 0 0 0 0 15 17 52 86 240 331 68 6 3 26 15 11 11 7 185 319 25
11 28 38 19 45 42 106 149 50 8 6 3 0 0 0 0 0 0 0 0 0 28 33 74 25 131 3 15 20 27 36 22 10 9 7 31 25 10
0 0 6 10 24 20 17 10 2 1 0 0 0 0 0 0 0 0 0 0 1 22 30 92 72 48 4 4 9 6 22 21 10 11 12 7 29 28
0 0 4 10 6 1 0 0 0 0 0 0 0 0 0 0 0 0 0 0 0 20 40 23 0 1 5 26 35 16 5 11 9 8 11 11 2 1
8 1 1 0 0 0 0 0 0 0 0 0 0 0 0 0 0 0 0 0 0 18 28 31 8 0 0 11 6 6 0 1 1 11 17 8 9 193
2 0 0 0 0 0 0 0 0 0 0 0 0 0 0 0 0 0 0 0 0 0 0 64 2 0 0 5 6 17 3 0 2 2 1 7 16 11
7 0 0 0 0 0 0 0 0 0 0 0 0 0 0 0 0 0 0 0 0 0 0 4 92 11 0 2 4 18 7 2 6 6 4 0 6 1

GFSNE_con_sbcape_012.txt.gz
CAPE
924 670 457 174 218 277 422 199 172 58 57 62 116 204 86 40 56 22 42 8 194 0 0 0 0 0 0 0 0 0 0 0 0 0 0 0 0 0
501 686 598 360 417 387 128 140 228 125 83 139 76 144 219 204 158 69 105 111 42 1 0 0 0 0 0 0 0 0 0 0 0 0 0 0 0 0
477 604 507 820 487 336 669 420 178 160 166 31 78 88 105 136 151 159 382 177 84 57 41 23 2 0 0 0 0 0 0 0 0 0 0 0 0 0
627 628 477 370 1010 934 915 629 677 827 319 237 239 160 429 603 692 152 355 58 58 43 51 23 11 5 4 0 0 0 0 0 0 0 0 0 0 0
444 564 404 742 1215 979 924 770 560 574 620 190 109 123 112 36 36 48 29 214 354 100 24 12 6 4 2 0 0 0 0 0 0 0 0 0 0 0
831 736 676 651 1145 1156 927 1179 1055 942 397 48 113 177 326 179 271 95 33 143 69 23 34 9 3 8 4 0 0 0 0 0 0 0 0 0 0 0
1245 806 839 1181 886 1058 1214 1011 1149 730 201 25 7 32 53 39 80 51 43 50 39 49 37 3 0 0 0 0 5 7 0 0 0 0 0 0 0 0
1001 1194 932 716 453 396 51 127 624 596 134 74 41 20 82 152 171 89 40 8 0 0 60 0 0 0 0 0 0 0 0 0 0 0 0 0 0 0
1384 1191 1067 544 964 1197 185 127 135 77 65 44 37 71 155 241 151 76 61 50 0 0 0 0 0 2 6 19 48 24 7 0 0 0 0 0 0 0
980 1305 1078 837 1165 1157 1065 1007 475 265 212 73 30 73 216 273 184 47 1 0 0 0 1 6 10 8 1 5 50 7 0 0 0 0 0 0 0 0
932 844 1033 1278 1147 504 648 722 311 604 487 146 99 156 43 0 0 3 0 0 0 0 27 4 5 25 21 2 0 0 0 0 0 0 0 0 0 0
1099 981 482 792 490 193 355 367 370 390 577 537 240 27 9 2 0 1 7 12 15 46 31 80 24 0 0 0 0 0 0 0 0 0 0 0 0 0
925 888 1029 520 67 0 0 298 176 0 10 98 67 0 0 50 72 236 151 116 122 15 0 19 0 0 0 11 0 0 0 0 0 1 0 0 0 0
1171 906 624 1 0 0 0 0 0 0 0 0 0 0 23 15 9 5 26 28 12 16 18 40 42 45 53 10 0 0 0 0 5 16 4 3 0 0
505 1 0 0 0 0 0 0 0 0 0 0 0 8 0 0 1 0 66 277 370 175 52 77 145 79 55 49 88 55 8 2 0 21 13 7 10 11
0 0 0 0 0 0 0 0 0 1 9 67 9 0 10 0 0 1 1 0 0 0 0 302 161 93 43 79 83 14 0 30 25 29 18 7 5 7
0 1 0 2 0 0 0 7 10 21 43 109 22 6 0 0 0 0 0 0 0 0 0 23 65 73 73 49 10 0 25 21 19 18 10 8 8 5
67 522 365 344 258 323 45 116 38 37 57 24 1 0 0 0 0 0 0 0 0 0 0 55 41 24 0 0 39 6 8 18 17 14 11 16 6 0
109 93 39 446 288 249 106 50 18 55 3 3 0 2 0 0 0 0 0 0 0 0 0 63 0 42 8 1 0 17 30 12 19 14 13 13 5 2
0 0 252 203 99 18 5 0 0 1 0 0 0 0 0 0 0 0 0 0 0 0 0 60 45 40 19 4 4 2 5 7 17 17 14 6 2 0
16 42 54 5 1 0 1 2 0 0 0 0 0 0 1 0 0 0 0 0 0 1 3 0 55 0 2 0 2 0 0 0 4 13 22 8 8 4
79 38 11 0 0 0 0 0 0 0 0 0 0 0 0 0 0 0 0 0 0 0 0 0 26 21 7 0 0 1 5 0 0 12 18 10 15 8
135 27 30 29 13 5 0 0 0 0 0 0 0 0 0 0 0 0 0 0 0 0 0 0 13 62 0 0 0 1 1 2 7 9 6 6 12 7

GFSNE_con_sbcape_015.txt.gz
CAPE
0 0 0 0 0 0 0 0 0 0 0 0 3 23 8 0 6 10 0 2 9 0 0 0 0 0 0 0 0 0 0 0 0 0 0 0 0 0
59 30 0 1 1 0 0 0 0 0 0 0 0 0 6 23 38 23 0 51 23 4 0 0 0 0 7 10 0 0 0 0 0 0 0 0 0 0
16 0 77 2 8 0 26 0 0 0 0 0 0 0 18 0 0 7 2 8 2 13 0 0 0 0 0 4 11 2 0 0 0 0 0 0 0 0
8 0 0 10 14 7 101 57 116 51 0 0 0 0 0 3 23 28 11 24 22 0 0 0 0 0 4 3 0 0 0 0 0 0 0 0 0 0
91 20 15 1 1 82 84 107 69 72 85 32 1 2 7 1 0 0 0 0 16 53 40 34 7 0 0 0 0 0 0 0 0 0 0 0 0 0
65 134 75 5 13 296 211 193 151 175 89 25 10 1 8 21 17 21 0 0 0 0 5 10 0 0 0 0 0 0 0 0 0 0 0 0 0 0
104 229 96 111 126 187 220 130 318 257 156 52 4 0 0 0 9 0 0 0 0 0 0 0 0 0 0 0 0 3 0 0 0 0 0 0 0 0
205 505 184 313 436 496 470 413 350 297 148 2 0 0 0 0 5 3 0 0 0 0 0 0 0 0 0 0 0 0 0 0 0 0 0 0 0 0
379 509 559 293 205 184 131 145 73 111 103 13 6 0 0 0 15 0 0 0 0 0 0 0 0 0 0 0 0 0 0 0 0 0 0 0 0 0
379 518 429 257 174 593 390 128 44 58 53 3 0 0 0 0 42 38 0 0 0 0 0 0 0 0 0 0 0 0 0 0 0 0 0 0 0 0
142 341 366 330 338 154 319 315 344 221 136 288 110 49 5 0 64 0 0 0 0 0 0 0 0 0 0 0 0 0 0 0 0 0 0 0 0 0
0 229 330 328 61 16 180 155 119 99 72 4 0 0 0 0 0 0 5 0 0 0 0 0 0 0 0 0 0 0 0 0 0 0 0 0 0 0
88 162 104 96 345 130 4 17 137 0 0 0 0 0 0 0 0 9 17 0 0 0 0 0 0 0 0 0 0 0 0 0 0 0 0 0 0 0
149 197 146 329 91 0 0 0 0 0 0 0 0 0 0 0 0 0 0 6 5 0 0 0 0 0 15 9 0 0 0 0 0 0 0 1 6 0
0 0 0 0 0 0 0 0 0 0 0 0 0 0 0 0 0 0 0 0 0 0 0 0 0 4 23 28 12 0 0 0 0 0 0 16 20 21
0 0 0 0 0 0 0 0 0 0 0 0 0 0 0 0 0 0 0 0 0 0 0 0 1 63 40 13 6 1 0 0 0 0 0 8 19 17
0 0 0 0 0 0 0 0 0 0 0 2 0 0 0 0 0 0 0 0 0 0 0 0 1 18 40 44 7 0 0 0 0 0 2 15 14 17
0 0 0 0 0 0 0 0 0 3 4 2 0 0 0 0 0 0 0 0 0 0 0 0 0 0 0 0 17 0 0 0 0 5 14 20 14 8
0 0 0 0 0 0 0 0 0 2 0 0 0 0 0 0 0 0 0 0 0 0 0 0 0 1 13 10 0 0 14 0 8 7 14 27 19 4
0 0 0 0 0 0 0 0 0 0 0 0 0 0 0 0 0 0 0 0 0 0 0 0 0 0 17 7 1 0 0 0 4 13 20 13 5 10
0 0 0 0 0 0 0 0 0 0 0 0 0 0 0 0 0 0 0 0 0 0 0 0 0 1 0 0 0 0 0 0 0 17 24 12 12 10
0 0 0 0 0 0 0 0 0 0 0 0 0 0 0 0 0 0 0 0 0 0 0 0 0 0 0 0 0 0 0 0 0 8 32 21 16 13
0 0 0 0 0 0 0 0 0 0 0 0 0 0 0 0 0 0 0 0 0 0 0 0 0 0 0 0 0 0 0 0 2 5 9 23 9 8

GFSNE_con_sbcape_021.txt.gz
CAPE
0 0 0 0 0 0 0 0 0 0 0 0 0 0 0 0 0 0 0 0 6 0 0 0 4 26 58 71 92 88 92 65 23 2 0 0 0 0
0 0 0 0 0 0 0 0 0 0 0 0 0 0 0 0 0 0 0 0 0 0 0 0 0 7 30 50 63 62 61 76 74 57 24 10 2 0
0 0 0 0 0 0 0 0 0 0 0 0 0 0 0 0 0 0 0 0 0 0 0 0 0 0 0 10 27 32 31 25 35 47 63 57 24 12
0 0 0 0 0 0 0 0 0 0 0 0 0 0 0 0 0 0 0 0 0 0 0 0 0 0 0 0 0 0 0 0 0 0 1 29 46 45
0 0 0 0 0 0 0 0 1 0 0 0 0 0 0 0 0 0 0 0 0 0 0 0 0 0 0 0 0 0 0 0 0 0 0 0 0 2
0 0 0 0 0 0 0 3 0 2 0 0 0 0 0 0 0 0 0 0 0 0 0 0 0 0 0 0 0 0 0 0 0 0 0 0 0 0
0 0 0 0 0 0 0 0 0 1 1 0 0 0 4 4 0 0 0 0 0 0 0 0 0 0 0 0 0 0 0 0 0 0 0 0 0 0
5 9 0 0 0 0 0 2 0 3 0 0 0 2 0 0 0 0 0 0 0 0 0 0 0 0 0 0 0 0 0 0 0 0 0 0 0 0
63 63 1 0 0 2 4 1 0 0 0 0 0 0 0 4 0 0 0 0 0 0 0 0 0 0 0 0 0 0 0 0 0 0 0 0 0 0
107 40 2 0 32 23 16 3 0 0 0 0 0 18 5 0 0 0 0 0 0 0 0 0 0 0 0 0 0 0 0 0 0 0 0 0 0 0
193 145 22 0 55 21 24 4 0 0 11 0 35 25 1 0 0 0 0 0 0 0 0 0 0 0 0 0 0 0 0 0 0 0 0 0 0 0
154 88 114 92 39 0 15 0 0 12 1 0 0 0 0 0 0 0 0 0 0 0 0 0 0 0 0 0 0 0 0 0 0 0 0 0 0 0
56 0 0 0 2 0 0 0 5 0 0 0 0 0 0 0 0 0 0 0 0 0 0 0 0 0 0 0 0 0 0 0 0 0 0 0 0 0
0 0 0 0 0 1 1 0 0 0 0 0 0 0 0 0 0 0 0 0 0 0 0 0 0 0 0 0 0 0 0 0 0 0 0 0 0 0
0 0 0 1 1 1 1 1 0 0 0 0 0 0 0 0 0 0 0 0 0 0 0 0 0 0 0 0 0 0 0 0 0 0 0 0 0 0
1 1 0 0 0 0 1 0 0 0 0 0 0 0 0 0 0 0 0 0 0 0 0 0 0 0 0 0 0 0 0 0 0 0 0 0 0 0
0 0 0 0 0 0 0 0 0 0 0 0 0 0 0 0 0 0 0 0 0 0 0 0 0 0 0 0 0 0 0 0 0 0 0 0 0 0
0 0 0 0 0 0 0 0 0 0 0 0 0 0 0 0 0 0 0 0 0 0 0 0 0 0 0 0 0 0 0 0 0 0 0 0 0 0
0 0 0 0 0 0 0 0 0 0 0 0 0 0 0 0 0 0 0 0 0 0 0 0 0 0 0 0 0 0 0 0 0 0 0 0 1 1
0 0 0 0 0 0 0 0 0 0 0 0 0 0 0 0 0 0 0 0 0 0 0 0 0 0 0 0 0 0 0 0 0 0 0 0 0 14
0 0 0 0 0 0 0 0 0 0 0 0 0 0 0 0 0 0 0 0 0 0 0 0 0 0 0 0 0 0 0 0 0 0 0 4 8 10
0 0 0 0 0 0 0 0 0 0 0 0 0 0 0 0 0 0 0 0 0 0 0 0 0 0 0 0 0 0 0 0 0 0 0 15 16 12
0 0 0 0 0 0 0 0 0 0 0 0 0 0 0 0 0 0 0 0 0 0 0 0 0 0 0 0 0 0 0 0 0 0 0 1 15 17

GFSNE_con_sbcape_024.txt.gz
CAPE
0 0 0 0 0 0 0 0 0 0 0 0 0 0 0 0 0 6 106 25 3 20 1 0 0 15 46 66 74 69 99 128 118 84 44 18 0 0
0 0 0 0 0 0 0 0 0 0 0 0 0 0 0 0 0 43 14 2 7 2 5 4 9 18 23 40 58 68 70 66 60 70 79 62 39 22
0 0 0 0 0 0 0 0 0 0 0 0 0 0 0 6 0 0 0 2 2 0 0 0 0 0 3 0 0 0 10 16 35 49 59 67 76 65
0 0 0 0 0 0 0 0 0 0 0 9 0 0 0 0 1 15 3 0 1 0 0 0 0 0 0 0 0 0 0 0 0 0 0 0 14 53
1 0 0 0 0 0 0 0 0 0 0 0 6 0 0 0 4 0 0 0 0 0 0 0 0 0 0 0 0 0 0 0 0 0 0 0 0 0
50 0 3 0 0 0 0 0 0 11 5 2 0 1 0 1 0 12 25 1 0 1 1 0 0 0 0 0 0 0 0 0 0 0 0 0 0 0
87 35 4 0 1 0 0 0 0 1 11 9 5 2 2 1 12 1 0 0 0 0 3 0 0 0 0 0 0 0 0 0 0 0 0 0 0 0
75 66 95 0 0 0 0 0 0 0 9 10 0 17 11 23 5 0 0 0 5 0 0 12 0 0 0 0 0 0 0 0 0 0 0 0 0 0
188 92 42 77 3 34 0 0 0 0 2 26 25 0 9 83 5 0 0 0 8 6 0 0 0 0 0 0 0 0 0 0 0 0 0 0 0 0
283 181 212 244 101 14 11 4 0 0 3 3 61 8 2 21 0 0 1 1 1 10 0 4 0 0 0 0 0 0 0 0 0 0 0 0 0 0
325 249 244 223 38 0 57 68 5 1 1 2 1 0 0 0 3 2 0 0 7 0 0 0 0 0 0 0 0 0 0 0 0 0 0 0 0 0
420 340 72 176 6 0 178 296 192 3 3 1 0 0 0 0 0 0 0 0 0 0 0 0 0 0 0 0 0 0 0 0 0 0 0 0 0 0
564 361 204 40 17 0 1 27 1 2 0 0 0 0 0 0 0 0 0 0 0 0 0 0 0 0 0 0 0 0 0 0 0 4 0 0 0 0
503 233 37 0 0 0 0 0 0 0 0 0 0 0 0 0 0 0 0 0 0 0 0 0 0 0 0 0 0 0 0 0 0 0 6 0 0 0
129 46 0 0 2 1 1 1 0 0 0 0 0 0 0 0 0 0 0 0 0 0 0 0 0 0 0 0 0 0 0 0 0 0 0 0 0 0
1 0 1 0 0 0 1 0 0 0 0 0 0 0 0 0 0 0 0 0 0 0 0 0 0 0 0 0 0 0 0 0 0 0 0 0 0 0
0 1 0 0 0 2 2 1 0 0 0 0 0 0 0 0 0 0 0 0 0 0 0 0 0 0 0 0 0 0 0 0 0 0 0 0 0 0
0 1 0 0 0 0 0 0 0 0 0 0 0 0 0 0 0 0 0 0 0 0 0 0 0 0 0 0 0 0 0 0 0 0 0 0 0 0
0 0 0 0 0 0 0 0 0 0 0 0 0 0 0 0 0 0 0 0 0 0 0 0 0 0 0 0 0 0 43 0 0 0 0 0 1 0
0 0 0 0 0 0 0 0 0 0 0 0 0 0 0 0 0 0 0 0 0 0 0 0 0 0 0 0 0 0 0 0 0 0 0 0 0 2
0 0 0 0 0 0 0 0 0 0 0 0 0 0 0 0 0 0 0 0 0 0 0 0 0 0 0 0 0 0 0 0 0 0 0 3 4 11
0 0 0 0 0 0 0 0 0 0 0 0 0 0 0 0 0 0 0 0 0 0 0 0 0 0 0 0 0 0 0 0 0 0 0 1 30 19
0 0 0 0 0 0 0 0 0 0 0 0 0 0 0 0 0 0 0 0 0 0 0 0 0 0 0 0 0 0 0 0 0 0 0 0 3 11

GFSNE_con_sbcape_027.txt.gz
CAPE
365 314 152 142 121 16 0 0 0 0 0 10 0 65 80 135 60 80 239 89 0 0 0 0 0 2 14 37 47 64 111 164 168 162 173 173 26 0
220 322 275 117 94 91 43 11 0 4 0 0 9 21 37 78 32 268 154 0 0 0 0 0 0 0 7 31 49 49 55 60 59 59 68 91 113 60
340 360 367 316 94 67 39 18 13 0 0 0 5 67 68 103 36 161 96 232 126 0 0 0 0 0 0 2 2 4 6 8 8 9 6 5 32 70
639 434 387 131 217 148 44 131 41 16 0 255 82 91 190 242 416 455 265 49 149 6 0 0 0 0 0 0 0 0 0 0 0 0 0 0 0 0
829 602 512 393 214 40 72 15 13 112 119 53 71 91 123 140 293 469 486 242 172 10 0 0 0 0 0 0 0 0 0 0 0 0 0 0 0 0
1032 773 636 557 414 319 175 223 168 146 169 146 105 96 160 269 277 263 224 101 44 32 33 1 0 0 0 0 0 0 0 0 0 0 0 0 0 0
1324 1016 780 647 247 222 147 440 619 359 153 189 201 196 128 110 34 204 101 67 84 101 163 270 271 166 136 0 0 0 0 0 0 0 0 0 0 0
1824 1427 1064 309 78 0 0 97 602 693 695 293 296 350 502 54 269 122 94 153 95 65 244 332 432 542 469 421 14 0 0 0 0 0 0 0 0 0
2043 1877 1378 772 165 330 32 0 0 0 86 765 693 738 546 200 172 309 238 206 287 525 440 475 539 547 225 80 0 0 0 0 0 0 0 0 0 0
2076 1907 1655 1284 814 652 826 407 267 108 36 92 645 863 464 391 198 352 455 548 519 459 547 329 58 68 51 0 0 0 0 0 0 0 0 0 0 0
2136 1875 1554 1417 766 152 780 769 467 510 97 1 27 4 1 3 41 358 331 204 148 88 56 0 3 4 0 0 0 0 0 0 0 0 0 0 0 0
2069 1804 586 1071 643 0 736 983 1032 856 663 141 5 0 0 1 0 247 101 0 0 0 8 0 0 0 0 0 0 0 0 0 0 0 0 0 0 0
1910 1301 1479 146 90 0 114 1281 1052 988 335 353 90 66 2 0 0 0 0 0 0 0 4 0 0 0 0 0 0 0 0 0 0 0 0 0 0 0
1346 1367 1557 9 0 0 0 604 89 130 276 188 16 0 0 0 0 0 0 0 0 0 0 0 0 0 0 0 0 0 0 0 0 0 0 0 0 0
1216 1152 750 2 2 1 0 2 0 198 104 0 0 0 0 0 0 0 0 0 0 0 0 0 0 0 0 0 0 0 0 0 0 0 20 26 9 0
6 1 1 2 0 0 0 0 194 226 31 0 0 0 0 0 0 0 0 0 0 0 0 0 0 0 0 0 0 0 0 0 0 25 35 10 0 0
3 3 5 3 2 2 5 3 82 0 0 0 0 0 0 0 0 0 0 0 0 0 0 0 0 0 0 0 0 0 0 0 10 14 15 0 0 0
0 4 10 2 9 3 1 2 0 0 0 0 0 0 0 0 0 0 0 0 0 0 0 0 0 0 0 0 0 0 0 0 1 3 4 0 0 0
1 4 65 6 14 0 0 0 0 0 0 0 0 0 0 0 0 0 0 0 0 0 0 0 0 0 0 0 0 0 0 0 0 0 0 0 0 0
18 14 1 0 0 0 0 0 0 0 0 0 0 0 0 0 0 0 0 0 0 0 0 0 0 0 0 0 0 0 0 0 0 0 0 0 0 0
87 104 32 1 0 0 0 0 0 0 0 0 0 0 0 0 0 0 0 0 0 0 0 0 0 0 0 0 0 0 0 0 0 0 0 0 0 0
52 63 29 4 0 0 0 0 0 0 0 0 0 0 0 0 0 0 0 0 0 0 0 0 0 0 0 0 0 0 0 0 0 0 0 0 5 24
115 102 6 0 0 0 0 0 0 0 0 0 0 0 0 0 0 0 0 0 0 0 0 0 0 0 0 0 0 0 0 0 0 0 0 0 0 0

GFSNE_con_sbcape_030.txt.gz
CAPE
851 830 307 46 134 65 37 1 0 1 14 60 0 6 1 7 120 278 373 470 179 46 9 0 0 1 1 20 78 129 161 320 366 337 333 175 144 148
771 540 754 68 108 115 59 14 2 0 0 10 4 4 5 2 78 255 234 116 114 19 0 0 0 0 11 30 34 43 50 58 70 100 125 134 102 72
1362 729 873 738 94 48 86 84 63 36 0 7 3 136 443 439 53 69 138 152 75 14 2 0 0 0 2 3 2 0 0 0 0 0 0 0 0 0
1981 1515 889 588 783 359 132 998 368 203 0 234 107 195 603 534 524 678 298 56 58 18 10 0 0 0 0 0 0 0 0 0 0 0 0 0 0 0
2289 2047 1490 765 852 485 389 235 116 146 275 36 32 235 149 354 569 738 626 617 235 21 0 0 0 0 0 0 0 0 0 0 0 0 0 0 0 0
2590 2331 1922 1416 1005 931 545 523 319 164 290 155 72 26 246 416 254 108 536 596 297 136 18 1 0 0 0 0 0 0 0 0 0 0 0 0 0 0
2739 2589 2282 1720 888 936 865 981 1382 597 60 175 227 165 200 248 489 288 199 309 353 487 310 205 167 218 273 0 30 56 0 0 0 0 0 0 0 0
3240 2791 2536 1265 771 299 308 333 886 1274 1318 223 268 495 987 576 571 358 210 198 141 343 428 465 428 478 487 447 34 0 0 0 0 0 0 0 0 0
3449 3220 2739 2310 1375 1471 149 31 34 295 368 1086 1035 1221 854 1289 1116 779 738 512 511 384 835 618 345 417 343 163 0 0 0 0 0 0 0 0 0 0
3584 3556 3885 3506 2435 1812 1709 736 489 485 434 311 816 952 1525 943 1061 775 841 677 638 533 908 438 186 29 89 30 1 0 0 0 0 0 0 0 0 0
3671 3512 3594 3550 2621 883 1878 1923 1683 1187 286 78 43 62 75 63 163 482 406 711 599 249 412 34 6 13 7 0 1 0 0 0 0 0 0 0 0 0
3804 3971 1993 2884 2233 220 1470 1815 2004 1783 1295 419 79 36 7 24 0 194 286 257 105 5 29 0 0 0 2 0 0 0 0 0 0 0 0 0 0 0
2551 2831 2827 1161 243 98 412 1502 1796 1884 1127 1246 514 619 526 427 99 69 242 0 0 0 8 0 0 0 0 0 0 0 0 0 0 0 0 0 0 0
2968 2454 2671 304 67 0 0 789 849 729 2141 1138 842 483 411 321 181 13 0 0 0 0 0 0 0 0 0 0 0 0 0 0 0 0 0 0 0 0
2522 2330 1579 2 0 1 5 23 72 903 1001 781 507 491 270 160 22 0 0 0 0 0 0 0 0 0 0 0 0 0 0 0 0 0 0 5 21 18
103 6 0 0 1 3 2 5 399 719 677 615 466 376 91 11 0 0 0 0 0 5 3 0 0 0 0 0 0 0 0 0 0 5 17 4 5 5
0 1 2 1 2 5 35 132 298 549 455 554 376 121 12 7 0 1 0 0 5 0 0 1 0 0 0 0 0 0 0 0 0 7 10 0 0 1
1 6 8 3 0 4 92 100 320 221 286 254 129 25 10 2 0 4 0 1 2 0 0 0 0 0 0 6 0 0 0 0 0 8 12 0 0 0
273 124 9 0 1 1 9 216 321 127 109 39 28 17 3 2 1 8 0 0 0 0 0 0 0 0 0 0 0 0 0 0 0 0 0 0 0 0
277 46 57 4 52 24 50 110 170 66 51 5 4 2 0 6 8 0 0 0 0 0 0 0 0 0 0 0 0 0 0 0 0 0 0 0 0 0
300 241 146 124 120 70 111 121 80 11 0 0 0 1 3 4 0 0 0 0 0 0 0 0 0 0 0 0 0 0 0 0 0 0 0 0 0 0
296 320 405 269 157 183 109 66 32 0 0 1 2 1 0 0 0 0 0 0 0 0 0 0 0 0 0 0 0 0 0 0 0 0 0 0 0 0
376 318 189 151 280 225 53 3 5 0 6 1 0 0 0 0 0 0 0 0 0 0 0 0 0 0 0 0 0 0 0 0 0 0 0 0 0 0

GFSNE_con_sbcape_033.txt.gz
CAPE
2098 1701 704 49 104 89 31 0 0 19 78 352 1 354 3 39 137 70 133 134 168 72 2 15 41 23 33 93 98 151 285 386 468 579 594 451 355 332
1008 2194 1899 128 154 94 43 21 0 0 5 50 47 40 78 40 149 45 122 298 310 114 10 0 0 0 3 18 45 122 216 259 299 330 361 372 284 176
2489 2464 2153 2223 113 56 74 52 43 41 4 0 9 798 448 335 218 321 169 594 52 0 0 1 0 0 0 15 28 28 13 22 13 17 0 32 32 12
2626 2695 1960 832 2090 1797 228 1555 451 737 76 1678 696 426 1065 1547 1437 1610 402 34 217 18 12 0 0 0 0 0 0 0 0 0 0 0 0 0 0 10
3464 3331 2717 2201 2260 733 845 426 243 496 486 181 113 175 269 535 1037 1419 1416 1138 453 23 0 0 0 0 0 0 0 0 0 0 0 0 0 0 0 0
3715 3664 3426 2811 2199 2333 1666 1605 1161 643 538 251 140 62 177 887 442 256 421 637 593 146 56 7 31 0 0 0 0 0 0 0 0 0 0 0 0 0
3966 3914 3728 3025 1897 1923 1369 1582 1470 851 66 160 290 304 137 413 886 631 602 183 590 146 463 290 733 236 233 0 37 4 0 0 0 0 0 0 0 0
4211 4130 3848 2340 1589 954 847 982 1461 2066 1756 830 709 768 2151 1282 620 386 526 195 290 752 440 458 955 833 366 179 67 64 0 0 0 0 0 0 0 0
4326 4294 3920 2713 2394 2196 431 429 226 605 944 2247 1981 1867 2173 1970 1905 984 1443 1050 570 629 776 405 350 301 59 1 0 0 0 0 0 0 0 0 0 0
4072 4258 4310 3464 3477 2976 2725 1515 1348 1128 968 751 1665 2057 2086 2005 1058 1607 1475 1220 1017 598 1150 264 238 47 0 0 0 0 0 0 0 0 0 0 0 0
3735 4154 4213 4284 3424 1745 3123 2985 2137 1674 570 527 348 306 275 326 460 803 497 691 601 379 866 237 25 0 0 0 0 0 0 0 0 0 0 0 0 0
3593 4079 2885 3642 3471 656 2807 3163 2677 2091 1602 614 113 41 65 15 0 742 434 278 316 163 502 43 8 0 0 0 0 0 0 0 0 0 0 0 0 0
3255 3414 3749 1800 1793 128 1123 2840 2816 2730 1897 1535 723 606 460 669 279 124 681 365 329 177 8 0 0 0 0 0 0 0 0 0 0 0 0 0 0 0
3267 3224 3401 1810 384 0 59 2128 1867 1886 1894 1203 1193 1033 701 480 490 390 548 523 168 12 0 0 0 0 0 0 0 0 0 0 0 0 2 0 0 0
3193 2927 2547 344 0 0 93 346 455 1294 1532 981 1061 881 833 596 815 749 549 301 54 0 0 0 0 0 0 0 0 0 0 0 0 0 0 12 21 22
1120 1527 112 1 42 375 1 0 376 894 1085 1167 773 881 539 454 77 33 3 0 0 0 9 1 0 0 0 0 0 0 0 0 0 0 4 0 2 6
1733 366 154 151 0 0 37 2 60 395 798 390 350 404 300 92 71 71 4 0 2 10 8 0 12 2 0 0 0 0 0 0 0 2 4 0 0 1
1214 567 276 279 43 2 76 38 89 149 674 392 158 274 238 40 84 51 1 8 14 18 0 0 10 0 0 2 0 0 0 0 0 0 2 5 0 0
1207 573 398 212 134 109 103 20 16 282 158 312 172 105 169 174 22 6 23 21 14 2 0 0 0 0 0 0 0 0 0 0 0 0 0 0 0 0
778 348 156 94 118 108 100 59 140 254 159 90 100 156 168 112 9 9 67 46 9 0 0 0 0 0 0 0 0 0 0 0 0 0 0 0 0 0
536 117 98 47 110 232 217 98 522 284 249 67 133 183 89 18 11 27 52 2 0 0 0 0 0 0 0 0 0 0 0 0 0 0 0 0 0 0
172 157 70 59 134 159 290 224 291 16 96 154 199 117 65 13 14 47 6 0 0 0 0 0 0 0 0 0 0 0 0 0 0 0 0 0 0 0
5 10 3 126 141 145 209 162 173 80 98 143 66 65 36 11 19 4 0 0 0 0 0 0 0 0 0 0 0 0 0 0 0 0 0 0 0 0

GFSNE_con_sbcape_036.txt.gz
CAPE
2497 2505 1738 1112 1104 920 852 607 670 534 720 904 253 212 654 220 77 1 76 0 0 0 0 0 0 0 0 44 109 172 137 309 470 550 561 544 478 486
2218 1978 1807 678 652 1091 757 781 577 474 394 577 553 390 131 544 305 503 429 46 0 0 0 0 0 1 10 31 53 15 35 62 100 231 371 412 470 367
2101 2192 1728 1389 1471 1024 774 807 903 714 463 402 1137 1405 917 413 120 416 271 415 42 0 2 5 0 0 1 0 0 0 0 0 0 0 6 47 72 68
2514 1982 2011 1418 1654 1782 1770 890 744 1084 893 1100 845 1159 1253 913 1083 1080 331 5 251 126 0 0 0 0 0 0 0 0 0 0 0 0 0 0 0 0
3009 2522 2147 1706 1556 930 1165 1057 988 1143 1408 673 758 1002 1294 1315 1012 1020 1278 805 636 42 0 0 2 0 0 0 0 0 0 0 0 0 0 0 0 0
3257 3000 2712 2161 1534 1589 1231 917 1138 1079 713 847 677 481 982 948 871 681 729 735 602 247 1 0 0 0 0 0 0 0 0 0 0 0 0 0 0 0
2970 3348 3043 2723 2097 1607 1387 1531 786 972 876 428 333 527 595 816 648 618 291 236 493 564 226 12 19 6 0 0 1 11 3 0 0 0 0 0 0 0
3272 3215 3204 2631 2170 1420 1268 1067 1302 734 499 247 345 485 638 875 1429 604 347 343 307 482 237 371 606 602 303 334 119 13 0 0 0 0 0 0 0 0
3241 3261 3317 3020 2484 1943 696 758 696 888 721 641 931 1312 1814 1583 1467 1242 1084 981 533 589 378 210 502 281 451 0 0 0 0 0 0 0 0 0 0 0
3203 3198 3254 3169 2931 2687 1847 937 806 611 464 692 1364 1179 1740 1599 1542 1529 1210 1138 1006 729 543 177 293 324 20 0 0 0 0 0 0 0 0 0 0 0
3162 3299 3212 3243 3087 1898 2513 1770 1139 1046 742 428 548 1126 796 782 1343 918 923 577 510 404 477 275 202 94 0 0 0 0 0 0 0 0 0 0 0 0
2809 3221 2564 3060 3035 1073 2275 2488 1924 1406 1195 637 131 21 17 72 177 763 573 417 241 239 425 259 64 0 0 0 0 0 0 0 0 0 0 0 0 0
2656 2797 3012 1689 1723 648 1019 2540 2447 2220 1388 1062 381 182 142 146 80 148 487 319 209 139 32 80 0 0 0 0 0 0 0 0 0 0 0 0 0 0
2949 2673 2775 2673 493 115 0 2010 2330 2128 1970 1214 462 201 162 136 257 164 165 286 281 66 0 0 0 0 0 0 0 0 0 0 0 0 0 0 0 0
3224 3060 855 1614 817 0 24 589 495 1660 2181 1483 694 375 214 165 118 146 52 213 135 16 0 0 0 0 0 0 0 0 0 0 0 0 0 0 0 0
1096 1796 2406 674 9 574 149 4 1334 2043 2101 1469 973 558 334 249 234 171 114 70 3 0 0 0 0 0 0 0 0 0 0 0 0 0 0 0 0 0
1868 2515 2557 2222 2408 778 399 665 1441 1819 1626 1263 733 330 225 156 65 26 1 0 1 0 0 0 0 0 0 0 0 0 0 0 0 0 0 0 0 0
819 2406 2539 2011 1436 1201 587 860 1208 1160 1121 756 274 143 70 83 5 0 0 0 0 0 0 0 0 0 0 0 0 0 0 0 0 0 0 0 0 0
1728 1710 2172 1865 1080 1043 642 780 732 666 532 222 135 63 3 23 0 0 0 0 3 0 2 2 0 0 0 0 0 0 0 0 0 0 0 0 0 0
1209 1538 1432 1403 822 422 246 320 264 238 291 212 96 42 65 0 0 0 0 0 0 0 0 0 0 0 0 0 0 0 0 0 0 0 0 0 0 0
141 613 1196 1132 706 301 127 64 44 90 175 124 139 17 0 0 0 0 0 0 0 0 0 0 0 0 0 0 0 0 0 0 0 0 0 0 0 0
0 1 0 0 203 177 75 0 3 16 49 61 2 1 0 0 0 0 0 0 0 0 0 0 0 0 0 0 0 0 0 0 0 0 0 0 0 0
67 9 15 19 14 11 25 5 0 1 6 0 15 0 0 0 0 0 0 0 0 0 0 0 0 0 0 0 0 0 0 0 0 0 0 0 0 0

GFSNE_con_sbcape_042.txt.gz
CAPE
485 828 97 10 24 26 0 0 0 0 0 0 0 0 0 0 0 0 0 0 0 0 0 0 0 0 0 0 0 0 0 4 0 12 4 0 0 0
894 480 607 322 39 21 10 0 0 0 0 0 4 0 0 0 0 0 0 0 0 0 0 0 0 0 0 0 0 0 0 0 0 0 0 0 0 0
1459 994 630 420 263 20 0 0 0 0 0 0 0 0 0 0 0 0 0 0 0 0 0 0 0 0 0 0 0 0 0 0 0 0 0 0 0 0
1563 1323 1109 769 498 125 0 36 0 0 0 0 0 196 10 0 0 0 0 0 0 0 0 0 0 0 0 0 0 0 0 0 0 0 0 0 0 0
1726 1460 1387 963 894 521 70 65 133 0 0 0 0 0 18 1 1 0 0 0 0 5 2 0 0 0 0 0 0 0 0 0 0 0 0 0 0 0
1691 1680 1501 1077 1121 727 284 124 61 168 0 26 0 14 39 90 2 3 27 7 3 29 61 25 0 0 0 0 0 0 0 0 0 0 0 0 0 0
1589 1906 1832 1418 1116 940 728 411 54 46 41 0 0 0 0 103 142 0 17 27 61 11 22 0 0 0 0 0 0 0 0 0 0 0 0 0 0 0
1917 1750 1728 1710 1211 669 467 692 352 172 124 59 97 20 31 0 80 86 50 1 14 3 29 28 0 0 0 0 0 0 0 0 0 0 0 0 0 0
2035 2006 2011 1933 1734 1764 380 159 222 162 325 66 21 57 11 3 0 46 81 21 40 5 20 58 0 0 0 0 0 0 0 0 0 0 0 0 0 0
2199 2191 2182 2213 1981 2041 2176 1369 634 618 227 122 217 55 23 9 1 8 41 49 2 0 0 7 0 0 0 0 0 0 0 0 0 0 0 0 0 0
2383 2304 2407 2441 2366 1374 2027 2273 1969 1402 968 204 270 232 5 1 0 0 28 8 7 4 0 0 0 7 0 0 0 0 0 0 0 0 0 0 0 0
2533 2606 2057 2221 2618 1548 1351 2152 2288 2325 1871 1494 377 26 3 0 0 49 78 40 34 14 0 0 0 0 0 0 0 0 0 0 0 0 0 0 0 0
2597 2655 2670 2173 782 1067 464 2400 2451 2500 2295 1725 1461 1020 526 233 10 130 184 86 45 7 0 0 0 0 0 0 0 0 0 0 0 0 0 0 0 0
3030 2948 2840 2629 1697 394 0 618 1251 885 2143 2480 1826 1535 1241 533 216 170 194 79 74 12 0 43 0 0 0 0 0 0 0 0 0 0 0 0 0 0
3073 3228 3164 2762 1650 21 0 10 0 747 1839 2308 2475 2103 1440 1188 416 216 217 126 66 1 0 0 0 0 0 0 0 0 0 0 0 0 0 0 0 0
281 1365 1668 1726 1399 1260 632 58 0 365 1199 1841 2192 2435 2214 1287 372 75 71 50 27 0 1 0 0 0 0 0 0 0 0 0 0 0 0 0 0 0
582 728 1099 1604 2172 2223 2203 1565 1142 83 157 755 1527 1968 2245 1795 294 22 0 1 12 1 2 1 0 0 0 0 0 0 0 0 0 0 0 0 0 0
1 561 918 1110 1476 1870 2299 2479 2434 1490 956 742 1033 1335 1603 1906 400 1 1 0 0 1 0 1 1 0 0 0 0 0 0 0 0 0 0 0 0 0
70 195 468 639 928 1244 1551 1845 2057 2244 2036 1051 1207 1233 1309 1393 574 23 0 1 0 1 0 0 0 0 0 0 0 0 0 0 0 0 0 0 0 0
0 0 0 0 0 1 1 2 2 3 8 196 685 811 960 940 773 120 1 1 0 1 0 1 0 0 0 0 0 0 0 0 0 0 0 0 0 0
0 0 0 0 0 0 1 0 0 1 1 2 4 27 247 327 291 220 16 0 0 0 0 1 0 0 0 0 0 0 0 0 0 0 0 0 0 0
0 0 0 0 0 1 1 4 5 3 1 2 3 4 21 0 1 1 0 0 0 1 1 1 0 0 0 0 0 0 0 0 0 0 0 0 0 0
0 0 0 1 1 1 1 1 0 1 1 2 1 1 1 1 0 0 1 1 1 0 0 0 0 0 0 0 0 0 0 0 0 0 0 0 0 0

GFSNE_con_sbcape_045.txt.gz
CAPE
308 228 11 0 4 0 0 0 0 0 0 0 0 0 0 0 0 0 0 0 0 0 0 0 0 0 0 0 0 0 0 0 0 0 0 0 0 0
493 209 330 156 2 0 3 0 0 0 0 0 0 0 0 0 0 0 0 0 0 0 0 0 0 0 0 0 0 0 0 0 0 0 0 0 0 0
1087 799 420 177 243 30 0 0 0 0 0 0 0 0 0 0 0 11 0 0 0 0 0 0 0 0 0 0 0 0 0 0 0 0 0 0 0 0
1263 1234 1123 802 315 67 0 0 0 0 0 0 0 0 0 0 0 0 0 0 0 0 0 0 0 0 0 0 0 0 0 0 0 0 0 0 0 0
1412 1337 1465 1211 1058 602 126 20 0 0 0 0 0 0 0 0 0 0 0 0 0 0 0 0 0 0 0 0 0 0 0 0 0 0 0 0 0 0
1614 1581 1564 1333 1389 1241 604 238 6 0 0 0 0 0 0 0 0 0 0 0 0 0 0 0 0 0 0 0 0 0 0 0 0 0 0 0 0 0
1304 1433 1561 1566 1309 1327 1235 840 113 9 1 0 0 0 0 0 13 0 0 0 0 0 0 0 0 0 0 0 0 0 0 0 0 0 0 0 0 0
1542 1412 1511 1463 1194 754 700 1029 870 505 354 83 188 34 5 0 0 0 0 0 0 0 0 0 0 0 0 0 0 0 0 0 0 0 0 0 0 0
1594 1604 1637 1639 1419 1627 561 84 85 120 592 1096 382 518 229 16 2 1 6 0 0 0 3 2 0 0 0 0 0 0 0 0 0 0 0 0 0 0
1760 1712 1716 1756 1734 1587 1655 1597 638 641 328 97 746 1155 649 230 0 1 0 0 0 0 0 1 0 3 6 0 0 0 0 0 0 0 0 0 0 0
1959 1914 1970 1980 1915 1390 1556 1836 1881 1864 1157 420 143 317 280 172 43 0 0 0 0 0 0 9 2 2 5 0 0 0 0 0 0 0 0 0 0 0
2026 2148 1830 1845 2104 1560 1159 1820 1956 2052 2061 1946 1113 92 21 27 0 0 169 3 0 0 0 1 1 0 0 0 0 0 0 0 0 0 0 0 0 0
2130 2247 2325 2167 1051 833 513 2240 2359 2374 2341 1955 2233 2184 1814 1123 705 59 0 110 70 15 5 0 1 0 0 0 1 0 0 0 0 0 0 0 0 0
2475 2572 2577 2480 1714 419 0 434 935 577 1909 2312 2480 2605 2559 2008 1279 688 115 19 51 93 163 2 0 0 0 1 0 0 0 0 0 0 0 0 0 0
2684 2957 2979 2621 1507 23 0 0 0 104 792 1504 2047 2305 2433 2519 2106 1318 314 75 3 10 1 0 1 0 0 0 0 0 0 0 0 0 0 0 0 0
372 1311 1383 1492 1616 1631 857 302 0 2 422 1005 1503 1804 1951 2099 2265 1823 906 264 119 182 55 0 0 0 1 0 0 0 0 0 0 0 0 0 0 0
1027 733 1062 1368 1631 1830 1938 1804 1628 669 122 276 526 911 1223 1439 1719 1927 1384 672 383 260 130 1 1 0 0 0 0 0 0 0 0 0 0 0 0 0
387 851 906 807 929 1003 1118 1293 1489 1463 1265 1034 959 1088 1026 1035 1050 1065 1064 926 367 262 117 0 0 0 0 1 0 0 0 0 0 0 0 0 0 0
464 215 241 35 9 0 0 0 0 0 0 1 1 2 4 14 90 317 820 367 317 183 128 0 0 0 0 0 1 0 0 0 0 0 0 0 0 0
0 0 0 0 0 0 0 0 1 0 0 0 0 2 4 3 3 8 30 132 146 214 22 1 1 0 0 0 0 0 0 0 0 0 0 0 0 0
0 0 0 0 0 0 0 0 1 0 0 0 1 2 3 3 1 1 0 1 0 0 1 1 0 0 0 0 0 0 0 0 0 0 0 0 0 0
0 0 0 0 0 1 1 1 0 2 3 1 1 2 1 0 0 0 0 0 0 0 1 2 0 0 0 0 0 0 0 0 0 0 0 0 0 0
0 1 1 0 0 0 1 1 0 1 2 2 1 1 0 0 0 0 0 1 1 1 1 1 1 0 0 0 0 0 0 0 0 0 0 0 0 0

GFSNE_con_sbcape_048.txt.gz
CAPE
628 450 56 16 1 0 0 0 17 31 33 81 57 0 10 131 418 396 292 1 0 0 0 0 0 0 0 0 1 0 0 0 0 0 0 0 0 0
756 515 480 264 22 14 9 0 0 0 35 0 22 0 0 0 34 366 170 1 0 0 0 0 0 0 0 0 0 0 0 0 0 0 0 0 0 0
1146 935 695 360 516 204 0 1 0 0 0 11 0 0 37 62 91 183 99 54 12 0 0 0 0 0 0 0 0 0 0 0 0 0 0 0 0 0
1306 1288 1393 917 689 487 174 63 1 0 0 64 0 0 38 62 60 51 47 0 0 0 0 0 0 0 0 0 0 0 0 0 0 0 0 0 0 0
1610 1602 1686 1485 1567 1120 740 429 31 1 0 0 73 0 0 0 35 0 41 82 8 0 0 0 0 0 0 0 0 0 0 0 0 0 0 0 0 0
1687 1724 1732 1767 1781 1782 1346 1249 1011 375 30 15 20 0 0 29 0 88 134 0 28 6 0 0 0 0 0 0 0 0 0 0 0 0 0 0 0 0
1533 1699 1816 1699 1452 1579 1774 1673 1351 1017 1035 609 602 486 53 63 77 212 24 187 181 51 16 43 15 10 30 0 0 0 0 0 0 0 0 0 0 0
1590 1569 1671 1272 1151 847 638 1050 1510 1234 1205 1019 954 1044 961 685 416 121 114 122 236 1 1 35 17 34 28 19 0 0 0 0 0 0 0 0 0 0
1771 1773 1729 1641 1282 1771 810 248 202 163 736 1758 1487 1324 1257 1256 855 366 98 288 323 326 15 32 64 17 42 0 0 0 0 0 0 0 0 0 0 0
1777 1850 1899 1970 1906 1778 1917 1993 1689 1313 591 405 1094 1692 1961 1959 1542 874 596 332 253 224 44 0 121 14 23 39 0 0 0 0 0 0 0 0 0 0
1952 1980 1955 2017 1872 1202 1786 2048 2144 2131 1657 622 307 434 290 184 240 965 310 0 12 159 38 0 109 6 26 2 0 0 0 0 0 0 0 0 0 0
1969 2063 1553 1697 1941 1294 1317 2120 2265 2398 2464 2516 2072 271 65 96 1 9 383 575 148 32 165 0 0 0 0 0 0 0 0 0 0 0 0 0 0 0
2002 2043 2193 1835 925 550 284 2123 2272 2282 2340 1931 2240 2327 2415 2119 1351 817 208 234 569 474 710 0 58 4 4 0 1 0 0 0 0 0 0 0 0 0
2185 2302 2384 2078 1555 459 0 128 625 326 1337 1935 2216 2428 2534 2655 2734 2281 1585 936 801 1090 1328 5 9 1 0 0 0 4 5 2 0 0 0 0 0 0
2227 2368 2382 2268 1872 44 0 0 0 0 195 811 1371 1831 2100 2214 2214 2201 2316 1748 999 506 309 355 41 12 0 0 0 0 0 2 0 0 0 0 0 0
30 897 1190 1363 1444 1512 951 371 1 5 259 773 1277 1684 1908 1682 1675 1755 1909 1887 1621 1405 630 91 84 12 34 2 0 1 0 1 1 0 0 0 0 0
1046 1040 1173 1450 1718 1788 1815 1704 1715 1162 467 559 647 741 872 781 781 958 900 856 728 975 559 783 270 27 2 45 1 2 1 0 0 0 0 0 0 0
864 1503 1448 1330 1108 856 679 369 188 0 3 3 2 3 4 4 7 8 12 36 14 4 304 477 215 0 1 0 0 1 1 0 1 1 0 0 0 0
1245 715 569 214 5 0 1 1 2 2 5 6 3 1 4 8 10 6 4 4 6 30 74 150 246 261 0 0 0 0 0 0 0 1 0 0 0 0
0 0 0 0 1 0 1 0 2 4 5 9 8 7 1 5 6 6 7 10 7 8 3 1 1 0 0 0 1 2 0 0 0 0 0 0 0 0
0 0 1 2 1 2 3 2 4 6 4 8 5 1 4 2 7 7 5 3 2 1 1 2 2 0 0 0 0 3 2 0 0 0 0 0 0 0
2 2 3 3 3 1 1 4 9 3 3 5 6 13 9 12 8 9 5 6 6 7 8 3 3 1 0 0 2 0 0 0 0 0 0 0 0 0
3 4 4 3 3 8 4 11 12 6 13 11 15 10 8 4 10 8 3 11 4 2 3 2 0 0 0 0 0 0 0 0 0 0 0 0 0 0